Regional Weather Roundup
Issued by NWS

Home | Current Version | Previous Version | Graphics & Text | Print | Product List | Glossary On
Versions: 1 2 3 4 5 6 7 8 9 10 11 12 13 14 15 16 17 18 19 20 21 22 23 24 25 26 27 28 29 30 31 32 33 34 35 36 37 38 39 40 41 42 43 44 45 46 47 48 49 50
000
ASUS43 KLMK 200510
RWRKY
KENTUCKY REGIONAL WEATHER ROUNDUP
NATIONAL WEATHER SERVICE LOUISVILLE KY
1200 AM EST FRI JAN 20 2017

NOTE "FAIR" INDICATES FEW OR NO CLOUDS BELOW 12,000 FEET
WITH NO SIGNIFICANT WEATHER AND/OR OBSTRUCTIONS TO VISIBILITY.

KYZ001>023-026-027-061>063-070>075-200600-
WESTERN AND SOUTH CENTRAL KENTUCKY

CITY           SKY/WX    TMP DP  RH WIND       PRES   REMARKS
PADUCAH        LGT RAIN  59  55  87 SW10      29.66F
HENDERSON      CLOUDY    54  52  94 S6        29.66R
OWENSBORO      LGT RAIN  54  54 100 S3        29.66F VSB 3/4
HOPKINSVILLE   CLOUDY    56  56 100 S7        29.68S
BOWLING GREEN  LGT RAIN  58  57  97 SW6       29.67F
GLASGOW        LGT RAIN N/A N/A N/A SW8       29.66F
$$

KYZ024-025-028>034-038-045-046-053-200600-
NORTH CENTRAL KENTUCKY

CITY           SKY/WX    TMP DP  RH WIND       PRES   REMARKS
LOUISVILLE/SDF RAIN      54  52  93 E8        29.65F FOG
LOUISVILLE/LOU RAIN      55  52  89 SE7       29.66F FOG
FORT KNOX      HVY RAIN  52  52 100 W3        29.64F FOG
$$

KYZ035>037-039>044-047>052-055>060-089>105-200600-
NORTHEAST KENTUCKY

CITY           SKY/WX    TMP DP  RH WIND       PRES   REMARKS
LEXINGTON      LGT RAIN  52  50  93 SE12      29.71F
COVINGTON      RAIN      47  44  90 E10       29.71F FOG
FRANKFORT      LGT RAIN  53  50  89 SE9       29.69F
$$

KYZ054-064>069-076>088-106>120-200600-
SOUTHEAST KENTUCKY

CITY           SKY/WX    TMP DP  RH WIND       PRES   REMARKS
JACKSON        LGT RAIN  48  44  86 E5        29.78F
LONDON         CLOUDY    51  47  86 CALM      29.75F
SOMERSET       DRIZZLE   50  50 100 S5        29.74F
MIDDLESBORO    CLOUDY    51  49  91 W3        29.80F
MONTICELLO     LGT RAIN  56  52  86 SE10G18   29.73F
$$





USA.gov is the U.S. government's official web portal to all federal, state and local government web resources and services.